www.pogodaiklimat.ru

Погода и климат >> Архив погоды >> Норвегия >> Лардал


ПОГОДА в Лардале

  • Прогноз погоды в Лардале
  • Монитор погоды в Лардале

АРХИВ ПОГОДЫ в Лардале

Время (UTC), дата Ветер
(напр.,м/с)
 
Видим.   Явления Облачность Т
(С)
Тd
(С)
f
(%)
Тe
(С)
Тes
(С)
Комфортность P
(гПа)
Po
(гПа)
Тmin
(С)
Tmax
(С)
R
(мм)
R24
(мм)
S
(см)
13 18.06 н/о н/о +17.9 +8.8 55 1009.6 1009.1
14 18.06 н/о н/о +16.7 +7.6 55 1009.5 1009.0
15 18.06 н/о н/о +18.4 +7.8 50 1009.6 1009.1
16 18.06 н/о н/о +16.3 +7.8 57 1009.5 1009.0
17 18.06 н/о н/о +15.6 +7.9 60 1009.1 1008.6
18 18.06 н/о н/о +15.2 +8.2 63 1009.7 1009.2 +12.8 +18.9
19 18.06 н/о н/о +13.9 +8.7 71 1009.6 1009.1
20 18.06 н/о н/о +12.9 +9.2 78 1010.0 1009.5
21 18.06 н/о н/о +11.7 +9.1 84 1010.1 1009.6
22 18.06 н/о н/о +11.1 +9.0 87 1010.4 1009.9
23 18.06 н/о н/о +10.5 +8.4 87 1010.5 1010.0
00 19.06 н/о н/о +9.8 +8.1 89 1010.6 1010.1
01 19.06 н/о н/о +10.4 +8.5 88 1010.7 1010.2
02 19.06 н/о н/о +10.8 +8.6 86 1010.8 1010.3
03 19.06 н/о н/о +10.5 +8.6 88 1010.7 1010.2
04 19.06 н/о н/о +11.1 +9.0 87 1011.1 1010.6
05 19.06 н/о н/о +11.6 +9.3 86 1011.2 1010.7
06 19.06 н/о н/о +12.6 +9.8 83 1011.2 1010.7 +9.7 +15.2
07 19.06 н/о н/о +16.3 +10.4 68 1011.1 1010.6
08 19.06 н/о н/о +15.4 +9.1 66 1011.1 1010.6
09 19.06 н/о н/о +15.5 +9.6 68 1011.1 1010.6
10 19.06 н/о н/о +15.3 +8.5 64 1010.8 1010.3
11 19.06 н/о н/о +16.4 +8.9 61 1010.6 1010.1
12 19.06 н/о н/о +17.5 +7.8 53 1010.0 1009.5
13 19.06 н/о н/о +17.9 +6.1 46 1009.6 1009.1
14 19.06 н/о н/о +18.4 +7.2 48 1008.9 1008.4
15 19.06 н/о н/о +17.7 +8.8 56 1008.2 1007.7
16 19.06 н/о н/о +17.0 +8.7 58 1007.7 1007.2
17 19.06 н/о н/о +16.4 +10.9 70 1007.7 1007.2
18 19.06 н/о н/о +16.0 +11.0 72 1007.1 1006.6 +12.4 +19.0
19 19.06 н/о н/о +15.6 +9.9 69 1007.2 1006.7
20 19.06 н/о н/о +14.6 +9.6 72 1007.0 1006.5
21 19.06 н/о н/о +14.1 +9.7 75 1006.4 1005.9
22 19.06 н/о н/о +13.8 +9.7 76 1005.6 1005.1
23 19.06 н/о н/о +13.3 +10.1 81 1004.9 1004.4
00 20.06 н/о н/о +13.0 +10.2 83 1004.3 1003.8
01 20.06 н/о н/о +12.8 +10.2 84 1003.8 1003.3
02 20.06 н/о н/о +12.6 +10.2 85 1003.6 1003.1
03 20.06 н/о н/о +13.0 +10.0 82 1003.8 1003.3
04 20.06 н/о н/о +13.0 +10.0 82 1003.8 1003.3
05 20.06 н/о н/о +13.0 +10.5 85 1003.9 1003.4
06 20.06 н/о н/о +13.9 +11.2 84 1003.8 1003.3 +12.6 +16.0
07 20.06 н/о н/о +14.5 +11.5 82 1003.8 1003.3
08 20.06 н/о н/о +15.2 +11.4 78 1003.7 1003.2
09 20.06 н/о н/о +16.2 +10.3 68 1003.4 1002.9
10 20.06 н/о н/о +16.4 +10.3 67 1003.4 1002.9
11 20.06 н/о н/о +15.8 +11.4 75 1003.4 1002.9 0.2
12 20.06 н/о н/о +16.5 +11.2 71 1003.5 1003.0
13 20.06 н/о н/о +16.3 +10.6 69 1003.3 1002.8
14 20.06 н/о н/о +18.1 +10.2 60 1002.9 1002.4
15 20.06 н/о н/о +17.6 +10.3 62 1002.7 1002.2
16 20.06 н/о н/о +16.0 +11.6 75 1002.8 1002.3 0.3
17 20.06 н/о н/о +15.5 +12.1 80 1003.2 1002.7 0.2
18 20.06 н/о н/о +15.0 +13.2 89 1003.4 1002.9 +13.9 +18.9 1
19 20.06 н/о н/о +14.5 +11.3 81 1004.3 1003.8
20 20.06 н/о н/о +13.5 +11.9 90 1004.5 1004.0 0.1
21 20.06 н/о н/о +13.1 +11.7 91 1005.2 1004.7
22 20.06 н/о н/о +12.5 +11.2 92 1005.3 1004.8
23 20.06 н/о н/о +11.4 +10.3 93 1005.5 1005.0
00 21.06 н/о н/о +11.2 +10.1 93 1005.7 1005.2
01 21.06 н/о н/о +11.0 +9.9 93 1005.9 1005.4
02 21.06 н/о н/о +11.0 +9.9 93 1006.3 1005.8
03 21.06 н/о н/о +11.6 +9.7 88 1006.7 1006.2
04 21.06 н/о н/о +10.8 +9.1 89 1006.9 1006.4
05 21.06 н/о н/о +12.5 +9.0 79 1007.2 1006.7
06 21.06 н/о н/о +15.0 +5.8 54 1007.3 1006.8 +10.6 +15.0 0.1
07 21.06 н/о н/о +16.3 +3.7 43 1007.5 1007.0
08 21.06 н/о н/о +15.3 +4.7 49 1007.8 1007.3
09 21.06 н/о н/о +15.6 +4.4 47 1008.1 1007.6
10 21.06 н/о н/о +15.7 +4.8 48 1008.3 1007.8
11 21.06 н/о н/о +17.1 +4.1 42 1008.2 1007.7
12 21.06 н/о н/о +17.8 +4.4 41 1007.9 1007.4
13 21.06 н/о н/о +14.8 +5.6 54 1009.0 1008.5
14 21.06 н/о н/о +15.0 +5.3 52 1009.4 1008.9
15 21.06 н/о н/о +14.2 +7.0 62 1010.0 1009.5
16 21.06 н/о н/о +13.3 +6.4 63 1010.2 1009.7
17 21.06 н/о н/о +12.8 +9.1 78 1010.3 1009.8 0.2
18 21.06 н/о н/о +12.8 +9.1 78 1010.8 1010.3 +12.5 +18.3
19 21.06 н/о н/о +12.1 +7.0 71 1011.5 1011.0
20 21.06 н/о н/о +11.0 +8.4 84 1012.1 1011.6 0.1
21 21.06 н/о н/о +10.9 +8.1 83 1012.6 1012.1
22 21.06 н/о н/о +10.4 +8.5 88 1013.2 1012.7
23 21.06 н/о н/о +9.8 +7.8 87 1013.6 1013.1 0.1
00 22.06 н/о н/о +9.7 +8.0 89 1014.0 1013.5 0.1
01 22.06 н/о н/о +9.5 +7.8 89 1014.6 1014.1
02 22.06 н/о н/о +9.6 +8.0 90 1015.2 1014.7 0.1
03 22.06 н/о н/о +9.4 +7.7 89 1015.7 1015.2 0.1
04 22.06 н/о н/о +9.5 +7.3 86 1015.8 1015.3
05 22.06 н/о н/о +10.3 +7.7 84 1016.5 1016.0
06 22.06 н/о н/о +11.0 +6.8 75 1017.2 1016.7 +9.2 +12.8 0.5
07 22.06 н/о н/о +11.6 +6.9 73 1017.8 1017.3
08 22.06 н/о н/о +11.8 +6.5 70 1018.5 1018.0
09 22.06 н/о н/о +12.8 +7.3 69 1019.2 1018.7 0.1
10 22.06 н/о н/о +12.6 +6.4 66 1019.6 1019.1
11 22.06 н/о н/о +13.3 +7.5 68 1020.2 1019.7
12 22.06 н/о н/о +12.8 +6.8 67 1020.7 1020.2
13 22.06 н/о н/о +12.9 +7.2 68 1021.4 1020.9 0.1
14 22.06 н/о н/о +14.9 +5.2 52 1021.1 1020.6
15 22.06 н/о н/о +16.7 +5.1 46 1021.1 1020.6
16 22.06 н/о н/о +14.2 +4.8 53 1021.4 1020.9
17 22.06 н/о н/о +13.7 +5.4 57 1021.7 1021.2
18 22.06 н/о н/о +13.0 +7.0 67 1021.7 1021.2 +11.0 +17.4
19 22.06 н/о н/о +12.2 +6.5 68 1021.8 1021.3
20 22.06 н/о н/о +11.4 +6.8 73 1021.9 1021.4
21 22.06 н/о н/о +10.6 +7.1 79 1022.1 1021.6
22 22.06 н/о н/о +10.7 +5.9 72 1022.0 1021.5
23 22.06 н/о н/о +9.7 +6.2 79 1022.1 1021.6
00 23.06 н/о н/о +9.6 +6.0 78 1021.8 1021.3
01 23.06 н/о н/о +9.5 +6.1 79 1022.1 1021.6
02 23.06 н/о н/о +9.6 +6.2 79 1022.2 1021.7
03 23.06 н/о н/о +10.0 +6.0 76 1022.8 1022.3
04 23.06 н/о н/о +10.0 +7.6 85 1023.3 1022.8
05 23.06 н/о н/о +10.7 +8.6 87 1023.4 1022.9 0.2
06 23.06 н/о н/о +11.3 +8.7 84 1023.8 1023.3 +9.2 +13.0 0.2
07 23.06 н/о н/о +11.7 +8.2 79 1023.9 1023.4
08 23.06 н/о н/о +12.4 +8.1 75 1024.3 1023.8
09 23.06 н/о н/о +12.9 +7.6 70 1024.4 1023.9
10 23.06 н/о н/о +13.0 +7.7 70 1024.8 1024.3
11 23.06 н/о н/о +13.2 +7.7 69 1025.6 1025.1
12 23.06 н/о н/о +12.7 +7.6 71 1026.1 1025.6
13 23.06 н/о н/о +13.2 +7.9 70 1026.7 1026.2
14 23.06 н/о н/о +13.4 +7.8 69 1027.0 1026.5
15 23.06 н/о н/о +13.5 +7.3 66 1026.9 1026.4
16 23.06 н/о н/о +13.6 +7.8 68 1026.8 1026.3
17 23.06 н/о н/о +13.6 +7.6 67 1026.4 1025.9
18 23.06 н/о н/о +12.5 +7.8 73 1026.5 1026.0 +11.2 +14.2
19 23.06 н/о н/о +10.6 +7.8 83 1026.8 1026.3
20 23.06 н/о н/о +9.5 +7.5 87 1027.2 1026.7
21 23.06 н/о н/о +8.8 +7.3 90 1028.0 1027.5
22 23.06 н/о н/о +8.3 +6.8 90 1028.5 1028.0
23 23.06 н/о н/о +7.5 +6.1 91 1029.2 1028.7
00 24.06 н/о н/о +8.0 +6.6 91 1029.5 1029.0
01 24.06 н/о н/о +7.3 +5.8 90 1029.8 1029.3
02 24.06 н/о н/о +6.9 +5.4 90 1030.1 1029.6
03 24.06 н/о н/о +7.5 +5.7 88 1029.9 1029.4
04 24.06 н/о н/о +7.2 +5.2 87 1029.9 1029.4
05 24.06 н/о н/о +7.6 +5.3 85 1029.9 1029.4
06 24.06 н/о н/о +10.4 +6.2 75 1030.0 1029.5 +6.7 +12.5
07 24.06 н/о н/о +12.4 +5.3 62 1029.8 1029.3
08 24.06 н/о н/о +15.2 +5.4 52 1029.3 1028.8
09 24.06 н/о н/о +15.9 +5.5 50 1029.1 1028.6
10 24.06 н/о н/о +18.2 +5.4 43 1028.7 1028.2
11 24.06 н/о н/о +17.7 +6.9 49 1028.1 1027.6
12 24.06 н/о н/о +18.2 +7.0 48 1027.8 1027.3
13 24.06 н/о н/о +17.4 +7.2 51 1027.6 1027.1
14 24.06 н/о н/о +17.9 +7.1 49 1027.0 1026.5
15 24.06 н/о н/о +16.6 +8.1 57 1027.0 1026.5
16 24.06 н/о н/о +16.3 +8.3 59 1026.6 1026.1
17 24.06 н/о н/о +15.9 +9.8 67 1026.9 1026.4
18 24.06 н/о н/о +15.2 +9.3 68 1027.3 1026.8 +10.4 +19.2
19 24.06 н/о н/о +14.6 +10.2 75 1028.1 1027.6
20 24.06 н/о н/о +13.4 +10.9 85 1028.5 1028.0 0.1
21 24.06 н/о н/о +12.8 +11.0 89 1027.9 1027.4 0.1
22 24.06 н/о н/о +12.6 +11.0 90 1027.7 1027.2
23 24.06 н/о н/о +12.3 +11.0 92 1027.5 1027.0
00 25.06 н/о н/о +12.4 +11.3 93 1027.4 1026.9 0.3
01 25.06 н/о н/о +12.0 +10.9 93 1027.3 1026.8 0.5
02 25.06 н/о н/о +12.2 +11.3 94 1026.9 1026.4 1
03 25.06 н/о н/о +12.0 +11.1 94 1026.7 1026.2 1
04 25.06 н/о н/о +11.9 +11.0 94 1026.6 1026.1 0.9
05 25.06 н/о н/о +11.9 +11.0 94 1026.2 1025.7 0.8
06 25.06 н/о н/о +12.0 +11.1 94 1026.0 1025.5 +11.9 +15.2 6
07 25.06 н/о н/о +12.5 +11.6 94 1025.7 1025.2 0.7
08 25.06 н/о н/о +12.6 +11.7 94 1025.4 1024.9 1
09 25.06 н/о н/о +13.0 +12.1 94 1025.5 1025.0 0.2
10 25.06 н/о н/о +13.8 +12.2 90 1024.9 1024.4 0.1
11 25.06 н/о н/о +14.8 +11.8 82 1024.0 1023.5
12 25.06 н/о н/о +15.2 +11.8 80 1023.9 1023.4
13 25.06 н/о н/о +16.5 +11.4 72 1023.4 1022.9

 

Местоположение метеостанции Лардал (Норвегия): широта 61.10 долгота 7.50 высота над уровнем моря 2 м.

В архиве по умолчанию представлена погода в Лардале за последнюю неделю. Архивные данные за месяц целиком и за предыдущие месяцы, начиная с января 2011 года, Вы можете получить, выбрав интересующий диапазон дат из раскрывающегося списка и нажав кнопку "Ввод!".


*Определитесь, кто Вы:
робот инопланетянин человек

Внимание! Время в таблицах - всемирное. Для получения местного времени необходимо прибавить поправку, которая равна 1 ч.

Смотрите также архив погоды в соседних городах и на ближайших метеорологических станциях:

Погода в Согндал аэропорту (Норвегия) (21 км)
Погода в Филефеле (Норвегия) (34 км)
Погода в Клеваватнете (Норвегия) (45 км)
Погода в Вангснесе (Норвегия) (46 км)
Погода в Мидтстове (Норвегия) (50 км)
Погода во Фьерлэнде (Норвегия) (53 км)
Погода в Мьолфелле (Норвегия) (54 км)
Погода на Финсеватнете (Норвегия) (56 км)
Погода в Сонгфельсхутте (Норвегия) (59 км)
Погода в Хемседале (Норвегия) (61 км)

Пояснения к столбцам:

Ветер - указаны скорость ветра в м/с - средняя за 10 мин, порывы в срок и между сроками (в фигурных скобках) и направление, откуда дует ветер: С - северный, СВ - северо-восточный, В - восточный, ЮВ - юго-восточный, Ю - южный, ЮЗ - юго-западный, З - западный, СЗ - северо-западный.
Видимость - горизонтальная дальность видимости в метрах или километрах. При видимости от 1 до 10 км при отсутствии осадков обычно наблюдается дымка, при ухудшении видимости до 1 км и менее - туман. В сухую погоду видимость может ухудшаться дымом, пылью или мглою.
Явления - указаны атмосферные явления, наблюдавшиеся в срок или в последний час перед сроком; фигурными скобками обозначены явления, наблюдавшиеся между сроками (за 1-3 часа до срока); квадратными скобками обозначены град или гололедные отложения с указанием их диаметра в мм.
Облачность - указаны через наклонную черту общая и нижняя облачность в баллах и высота нижней границы облаков в метрах; квадратными скобками обозначены формы облаков: Ci - перистые, Cs - перисто-слоистые, Cc - перисто-кучевые, Ac - высококучевые, As - высокослоистые, Sc - слоисто-кучевые, Ns - слоисто-дождевые, Cu - кучевые, Cb - кучево-дождевые. Подробнее классификацию облаков см. в Атласе облаков (PDF).
T - Температура воздуха - температура, измеренная на высоте 2 м над землей.
Td - Температура точки росы - температура, при понижении до которой содержащийся в воздухе водяной пар достигнет насыщения.
f - Относительная влажность воздуха - влажноcть воздуха, измеренная на высоте 2 м над землей.
Te - Эффективная температура - температура, которую ощущает одетый по сезону человек в тени. Характеристика душности погоды. При расчете учитывается влияние влажности воздуха и скорости ветра на теплоощущения человека.
Tes - Эффективная температура на солнце - температура, которую ощущает человек, с поправкой на солнечный нагрев. Характеристика знойности погоды. Зависит от высоты солнца над горизонтом, облачности и скорости ветра. Ночью, в пасмурную погоду, а также при ветре 12 м/с и более поправка равна нулю.
P - Атмосферное давление - приведенное к уровню моря атмосферное давление.
Po - Атмосферное давление - измеренное на уровне метеостанции атмосферное давление.
Tmin - Минимальная температура - минимум температуры воздуха на высоте 2 м над землей.
Tmax - Максимальная температура - максимум температуры воздуха на высоте 2 м над землей.
R - Количество осадков - Количество выпавших осадков за период времени, мм. При наведении курсора мыши на число - период времени, за который выпало указанное количество осадков.
R24 - Количество осадков - Количество выпавших осадков за 24 часа, мм.
S - Снежный покров - Высота снежного покрова, см. При наведении курсора мыши на число - состояние снежного покрова и степень покрытия местности в баллах.